Starlink 3562

operational
NORAD ID: 51861 Int'l Des: 2022-022 Owner: SPXS Country: US Constellation: starlink
LEOCIRCULAR

Über Starlink 3562

Beschreibung wird geladen...

Live-Position

3D-Globus wird geladen...

Nächste Überflüge

Höhenverlauf

Altitude vs Time

uPlot chart will show altitude changes over time

Zweizeiliger Elementsatz

1 51861U 22022K 25258.77375043 .00001775 00000-0 12958-3 0 9995
2 51861 53.2174 74.3465 0001527 81.0216 279.0949 15.08838503196622
Epoch: 15. Sept. 2025 • Age: 17 hours

Aktueller Status

Höhe 548.7 km
Geschwindigkeit 7.59 km/s
Subsatellitenpunkt -27.61°S, 107.16°E
Startdatum 3. März 2022
Alter 3.5 years
Typ internet

Technische Details

Klassifizierung Payload
Masse 297.00 kg
Trockenmasse 275.00 kg
Gesamtmasse 297.00 kg
Länge 0.20 m
Durchmesser 2.80 m
Spannweite 9.00 m
Form Box + pan
Hersteller SPXS
Bus-Typ Starlink
Phasenstatus In Orbit
Besitzer/Staat SPXS/US

Große Konstellationen

Loading constellations...